SCP
1 1 1 1 1 1 1 1 1 0 0 0 0 0 0 0 0 1 1 1 1 1 1 1 1 0 0 0 0 0 0 0 0 0 0 0 0 0 0 0 0 0 0
1 1 1 1 1 1 1 1 1 1 0 0 0 0 0 0 1 1 1 1 1 1 1 1 1 1 0 0 0 0 0 0 0 0 0 0 0 0 0 0 0 0 0
1 1 1 1 1 1 1 1 1 1 1 0 0 0 0 0 1 1 1 1 1 1 1 1 1 1 1 0 0 0 0 0 0 0 0 0 0 0 0 0 0 0 0
1 1 1 1 1 1 1 1 1 1 1 1 1 0 0 1 1 1 1 1 1 1 1 0 0 1 1 0 0 0 0 0 0 0 0 0 0 0 0 0 0 0 0
1 1 1 1 1 1 1 1 1 1 1 1 0 0 1 1 1 1 1 1 1 1 0 0 0 0 0 0 0 0 0 0 0 0 0 0 0 0 0 0 0 0 0
1 0 0 0 1 1 1 1 1 1 1 1 0 0 1 1 1 1 1 1 1 1 0 0 0 0 0 0 0 0 0 0 0 0 0 0 0 0 0 0 0 0 0
0 0 0 0 0 0 0 0 0 0 0 0 0 0 0 0 1 1 1 1 0 0 0 0 0 0 0 0 0 0 0 0 0 0 0 0 0 0 0 0 0 0 0
0 0 0 0 0 0 0 0 0 0 0 0 0 0 0 0 0 0 0 0 0 0 0 0 0 0 0 0 0 0 0 0 0 0 0 0 0 0 0 0 0 0 0
0 0 0 0 0 0 0 0 0 0 0 0 0 0 0 0 0 0 0 0 0 0 0 0 0 0 0 0 0 0 0 0 0 0 0 0 0 0 0 0 0 0 0
0 0 0 0 0 0 0 0 0 0 0 0 0 0 0 0 0 0 0 0 0 0 0 0 0 0 0 0 0 0 0 0 0 0 0 0 0 0 0 0 0 0 0
0 0 0 0 0 0 0 0 0 0 0 0 0 0 0 0 0 0 0 0 0 0 0 0 0 0 0 0 0 0 0 0 0 0 0 0 0 0 0 0 0 0 0
0 0 0 0 0 0 0 0 0 0 0 0 0 0 0 0 0 0 0 0 0 0 0 0 0 0 0 0 0 0 0 0 0 0 0 0 0 0 0 0 0 0 0
0 0 0 0 0 0 0 0 0 0 0 0 0 0 0 0 0 0 0 0 0 0 0 0 0 0 0 0 0 0 0 0 0 0 0 0 0 0 0 0 0 0 0
0 0 0 0 0 0 0 0 0 0 0 0 0 0 0 0 0 0 0 0 0 0 0 0 0 0 0 0 0 0 0 0 0 0 0 0 0 0 0 0 0 0 0
0 0 0 0 0 0 0 0 0 0 0 0 0 0 0 0 0 0 0 0 0 0 0 0 0 0 0 0 0 0 0 0 0 0 0 0 0 0 0 0 0 0 0
0 0 0 0 0 0 0 0 0 0 0 0 0 0 0 0 0 0 0 0 0 0 0 0 0 0 0 0 0 0 0 0 0 0 0 0 0 0 0 0 0 0 0
0 0 0 0 0 0 0 0 0 0 0 0 0 0 0 0 0 0 0 0 0 0 0 0 0 0 0 0 0 0 0 0 0 0 0 0 0 0 0 0 0 0 0
0 0 0 0 0 0 0 0 0 0 0 0 0 0 0 0 0 0 0 0 0 0 0 0 0 0 0 0 0 0 0 0 0 0 0 0 0 0 0 0 0 0 0
0 0 0 0 0 0 0 0 0 0 0 0 0 0 0 0 0 0 0 0 0 0 0 0 0 0 0 0 0 0 0 0 0 0 0 0 0 0 0 0 0 0 0
0 0 0 0 0 0 0 0 0 0 0 0 0 0 0 0 0 0 0 0 0 0 0 0 0 0 0 0 0 0 0 0 0 0 0 0 0 0 0 0 0 0 0
0 0 0 0 0 0 0 0 0 0 0 0 0 0 0 0 0 0 0 0 0 0 0 0 0 0 0 0 0 0 0 0 0 0 0 0 0 0 0 0 0 0 0
0 0 0 0 0 0 0 0 0 0 0 0 0 0 0 0 0 0 0 0 0 0 0 0 0 0 0 0 0 0 0 0 0 0 0 0 0 0 0 0 0 0 0
0 0 0 0 0 0 0 0 0 0 0 0 0 0 0 0 0 0 0 0 0 0 0 0 0 0 0 0 0 0 0 0 0 0 0 0 0 0 0 0 0 0 0
0 0 0 0 0 0 0 0 0 0 0 0 0 0 0 0 0 0 0 0 0 0 0 0 0 0 0 0 0 0 0 0 0 0 0 0 0 0 0 0 0 0 0
0 0 0 0 0 0 0 0 0 0 0 0 0 0 0 0 0 0 0 0 0 0 0 0 0 0 0 0 0 0 0 0 0 0 0 0 0 0 0 0 0 0 0
0 0 0 0 0 0 0 0 0 0 0 0 0 0 0 0 0 0 0 0 0 0 0 0 0 0 0 0 0 0 0 0 0 0 0 0 0 0 0 0 0 0 0
Wind_Speed
2 1 1 0 1 1 2 1 2 2 2 4 4 3 2 2 2 3 3 6 6 5 4 5 6 7 7 7 7 8 9 10 10 10 9 9 9 9 8 7 7 7 7
2 2 1 1 1 1 1 1 2 1 1 3 3 3 3 3 3 2 2 3 4 4 3 2 3 5 6 7 7 7 8 9 10 10 10 9 9 9 9 8 7 7 6
2 2 1 1 1 1 1 1 2 1 2 2 2 2 2 2 2 2 2 1 2 3 2 1 1 1 3 5 6 7 7 8 9 10 10 10 10 10 9 9 8 8 7
3 3 2 1 2 2 1 1 1 1 1 1 1 1 1 1 1 1 1 1 1 1 1 1 0 0 1 2 4 5 5 6 7 8 9 10 10 10 10 10 9 8 8
4 3 2 2 2 2 1 2 1 1 1 1 1 1 1 1 1 0 1 2 1 1 1 1 1 1 1 1 2 3 3 3 4 6 7 8 9 9 9 9 9 9 9
4 3 2 2 3 2 2 2 2 2 1 1 2 2 1 0 0 1 1 2 2 3 3 2 1 2 2 1 1 2 4 4 4 4 5 5 6 7 9 9 9 9 10
5 4 4 3 3 2 2 3 2 2 1 1 1 1 1 1 1 2 2 3 4 4 4 4 3 2 2 3 2 1 2 3 4 5 5 5 4 5 8 9 9 9 9
4 4 4 4 3 2 2 2 2 2 1 1 1 1 1 0 1 2 3 3 3 3 4 4 4 4 3 2 4 4 3 1 2 3 4 5 5 6 7 8 9 9 9
4 4 4 4 4 3 3 3 3 3 2 2 1 1 1 1 1 2 3 3 3 3 3 3 5 4 4 3 3 4 5 4 3 3 5 7 7 8 7 8 9 10 10
4 4 4 4 4 4 4 4 4 3 3 3 2 1 1 1 1 1 2 3 4 4 4 4 5 5 5 3 4 6 5 4 4 5 6 8 9 10 10 10 10 10 10
4 4 4 4 4 3 4 4 3 3 3 2 2 2 2 1 1 1 2 2 3 3 3 4 4 4 4 4 3 6 7 5 5 6 7 8 9 10 10 10 10 10 10
3 5 5 5 4 3 3 3 3 3 3 3 2 2 1 1 1 0 1 2 2 2 3 3 4 3 4 4 7 10 10 9 9 9 9 9 9 9 9 8 9 9 9
3 4 5 4 4 4 3 3 3 3 3 3 2 2 2 1 1 1 1 2 2 2 2 2 3 3 3 3 5 10 11 11 10 9 9 9 9 8 8 7 8 8 9
3 4 4 4 4 5 5 4 3 3 3 3 3 2 2 1 1 0 1 2 2 2 2 2 2 3 3 3 5 7 7 12 11 11 10 9 9 9 9 10 10 10 10
4 5 4 4 4 5 5 4 3 3 3 3 3 3 2 1 1 0 0 1 3 3 2 2 1 2 2 3 4 4 5 10 11 11 11 11 11 10 10 11 10 10 9
4 4 5 4 4 4 5 4 3 3 4 3 2 3 3 2 1 0 0 1 1 2 3 2 2 2 2 4 5 4 5 9 9 9 9 9 9 10 10 10 10 9 9
4 4 4 4 4 4 4 4 4 4 4 4 4 3 3 2 2 1 1 1 2 3 5 3 2 2 3 3 3 3 3 4 4 7 7 7 7 7 7 7 7 7 6
4 4 4 4 5 5 4 4 5 5 4 5 4 4 4 3 3 2 2 2 2 3 5 6 3 2 2 2 2 1 2 4 4 6 6 6 6 6 5 5 5 4 4
4 4 4 4 5 5 5 5 5 5 5 4 4 5 5 4 4 3 3 3 2 3 4 6 4 2 1 2 2 1 2 2 3 6 6 5 5 5 5 5 5 4 4
4 4 4 5 5 7 8 7 5 5 4 4 4 5 5 5 4 3 3 3 4 4 4 4 4 3 2 2 1 1 2 1 2 4 5 6 6 7 7 6 6 6 7
5 4 5 5 6 6 8 8 6 5 4 4 4 5 6 7 7 5 4 3 3 3 3 4 4 3 2 2 2 1 2 1 1 2 2 3 4 4 5 7 8 9 9
4 5 5 6 7 7 10 11 8 5 3 4 4 3 4 6 7 7 7 5 4 3 3 3 3 3 3 2 1 2 2 1 1 2 2 3 4 4 5 5 10 13 12
4 4 5 5 6 7 10 12 11 5 3 3 4 4 5 6 5 3 3 4 4 4 3 3 4 3 3 2 1 1 1 1 1 2 2 2 3 4 4 6 13 14 14
3 3 3 4 4 6 9 11 11 4 3 3 4 4 5 5 6 4 2 3 4 4 4 3 3 3 3 1 1 2 2 2 2 2 2 1 2 2 2 3 11 14 14
1 2 2 3 3 4 8 9 9 3 2 4 5 6 5 5 7 7 4 4 4 3 4 5 4 2 2 1 0 1 1 1 1 1 2 1 1 1 1 2 6 13 13
0 1 2 2 3 3 6 8 9 3 3 3 3 4 7 6 7 8 4 3 3 2 2 2 1 2 3 3 3 1 1 1 1 1 0 0 1 1 2 2 3 4 7
Wind_Direction
308 306 281 205 253 233 221 224 251 275 282 293 289 287 297 320 10 70 127 142 145 152 176 204 211 218 220 221 219 219 222 221 217 215 213 213 209 205 202 205 198 191 186
323 318 328 324 308 341 8 330 296 290 294 297 307 319 333 344 3 28 107 137 145 143 155 194 215 219 222 223 220 218 219 220 220 218 215 214 210 206 203 198 192 188 185
339 322 321 330 353 330 330 307 304 295 271 282 291 309 338 342 351 18 36 88 133 145 135 108 90 198 224 226 219 219 219 221 219 219 218 218 215 206 200 199 194 187 183
351 327 327 349 341 319 332 294 280 298 318 320 323 318 325 353 12 51 29 51 60 106 153 128 136 257 245 229 218 223 226 227 224 222 222 220 215 208 201 195 190 184 179
356 339 336 360 335 328 337 320 5 350 335 329 302 270 284 342 15 36 78 62 51 56 56 83 72 27 287 249 216 211 216 225 225 225 225 218 208 200 192 186 183 183 180
5 351 333 1 342 349 2 360 351 338 309 286 290 321 0 309 84 65 57 60 56 51 41 29 26 20 30 359 253 231 230 225 219 212 209 204 199 193 187 181 177 180 178
9 0 356 349 348 355 358 352 347 335 319 306 309 300 286 280 104 81 70 58 57 56 51 41 31 14 16 27 16 339 242 236 220 209 197 188 178 177 172 170 168 168 171
13 12 8 348 355 350 358 356 346 327 307 314 299 267 238 221 63 78 82 71 52 49 47 42 34 29 23 24 36 44 50 73 170 192 189 173 159 152 156 159 160 158 150
23 18 6 355 349 352 11 2 356 344 326 311 294 274 270 223 117 79 72 66 56 48 46 39 42 36 36 30 27 39 57 80 105 129 139 137 137 142 147 149 146 142 143
24 23 14 4 4 9 12 6 18 349 337 322 324 323 312 321 212 130 96 77 69 56 46 39 38 37 37 37 35 40 49 67 85 99 110 120 122 123 125 130 133 135 140
30 23 20 11 12 13 18 10 360 353 341 336 335 333 326 308 253 186 151 121 83 56 47 38 39 40 35 33 35 48 55 66 77 93 102 111 118 121 125 131 134 140 142
35 24 23 15 10 9 7 360 352 348 349 342 331 322 317 315 325 14 141 134 113 74 52 38 38 38 44 41 52 60 65 71 76 85 94 100 107 115 121 128 135 144 150
41 29 22 11 5 360 358 360 352 344 350 345 334 330 327 332 312 330 128 132 120 107 78 46 31 36 54 55 59 69 69 75 81 85 91 98 106 112 115 116 122 133 133
32 22 15 12 8 3 2 4 359 358 355 341 339 339 319 332 322 234 140 139 133 120 93 78 39 37 51 61 65 69 73 76 80 82 85 92 100 104 107 107 107 111 114
22 22 16 14 9 8 0 357 13 4 356 357 358 357 337 329 329 290 192 168 157 147 126 115 82 38 60 74 73 81 84 83 84 83 83 85 89 92 95 96 98 101 104
20 17 18 16 18 17 8 3 16 10 12 5 4 10 6 357 359 330 176 200 146 130 120 109 108 99 83 97 89 85 92 98 91 92 92 93 95 98 98 99 100 102 104
19 20 22 20 20 17 10 10 24 22 23 16 12 14 16 20 14 10 49 92 92 104 116 112 100 103 89 94 92 96 113 110 105 107 108 106 106 107 109 110 110 111 112
17 17 19 17 20 19 14 17 25 28 27 23 22 25 22 30 30 25 38 76 91 106 122 127 121 116 111 116 111 123 128 128 125 131 131 127 126 128 129 126 124 124 129
19 16 17 20 19 18 20 23 33 32 33 32 35 36 32 35 34 37 48 58 75 97 115 128 133 136 136 141 128 123 114 116 143 144 150 155 158 160 161 162 164 170 180
32 22 20 25 30 29 20 15 24 34 35 37 47 49 42 39 40 43 63 69 83 93 109 122 130 134 127 137 127 139 123 177 154 160 163 169 178 188 193 196 197 200 206
38 31 30 33 36 40 21 10 6 36 37 38 45 62 65 66 59 52 65 73 90 103 115 123 128 130 135 147 155 185 150 181 203 167 159 180 177 192 204 212 214 215 219
34 34 40 44 39 31 9 10 11 10 31 44 37 53 94 75 72 71 74 78 84 105 120 127 131 136 139 146 161 179 155 163 203 195 178 207 189 201 205 204 204 209 216
47 42 46 55 54 30 12 7 4 2 32 45 40 33 58 64 55 62 85 99 85 84 102 124 121 132 144 149 146 171 185 207 221 207 188 229 214 212 211 205 192 203 211
48 53 50 53 60 38 17 7 356 0 41 58 52 49 61 57 34 18 55 80 79 62 63 89 99 110 118 127 167 206 214 244 240 220 181 225 226 226 214 181 194 203 212
54 78 71 56 56 43 18 8 359 351 58 65 62 48 49 54 29 24 49 71 78 80 78 88 96 117 140 168 30 354 289 267 279 253 189 204 251 250 229 210 211 211 217
360 86 83 67 60 49 20 13 8 12 45 79 91 78 57 46 31 29 33 49 59 47 69 117 135 200 212 229 237 229 279 299 312 311 318 216 272 277 273 239 207 204 227